Observations for Trim Market St
| Time | AQI | Temp °C | Hum % | Pres Pa | CO μg/m³ | H₂S μg/m³ | NO μg/m³ | NO₂ μg/m³ | O₃ μg/m³ | SO₂ μg/m³ | PM1 μg/m³ | PM2.5 μg/m³ | PM10 μg/m³ |
|---|---|---|---|---|---|---|---|---|---|---|---|---|---|
| Thursday 27 August 2026 | |||||||||||||
| 06:51 | 2 | 18 | 84 | 2,147,483,647 | 0.28 | 0 | 2.18 | 1.21 | 55.04 | 0 | 16.39 | 19.17 | 29.82 |
| 06:50 | 2 | 18 | 84 | 2,147,483,647 | 0.29 | 0 | 2.17 | 2.69 | 57.85 | 0 | 18.53 | 20.57 | 32.54 |
| 06:49 | 2 | 18 | 84 | 2,147,483,647 | 0.3 | 0 | 2.16 | 2.01 | 52.28 | 0 | 17.1 | 19.17 | 30.91 |
| 06:48 | 2 | 18 | 84 | 2,147,483,647 | 0.31 | 0 | 2.17 | 3.56 | 52.1 | 0 | 15.68 | 18.71 | 28.19 |
| 06:47 | 2 | 18 | 84 | 2,147,483,647 | 0.31 | 0 | 2.17 | 5.91 | 52.21 | 0 | 18.53 | 19.64 | 29.82 |
| 06:46 | 2 | 18 | 84 | 2,147,483,647 | 0.3 | 0 | 2.16 | 2.6 | 52.86 | 0 | 17.81 | 19.64 | 29.82 |
| 06:45 | 2 | 18 | 84 | 2,147,483,647 | 0.31 | 0 | 2.14 | 3.56 | 51.69 | 0 | 17.81 | 20.57 | 33.08 |
| 06:44 | 2 | 18 | 84 | 2,147,483,647 | 0.29 | 0 | 2.15 | 1.5 | 57.62 | 0 | 17.81 | 20.57 | 32.54 |
| 06:42 | 2 | 18 | 84 | 2,147,483,647 | 0.29 | 0 | 2.14 | 3.12 | 66.45 | 0 | 19.95 | 21.49 | 34.14 |
| 06:39 | 2 | 18 | 84 | 2,147,483,647 | 0.31 | 0 | 2.14 | 2.38 | 51.72 | 0 | 18.53 | 20.1 | 31.43 |
| 06:38 | 2 | 18 | 84 | 2,147,483,647 | 0.31 | 0 | 2.15 | 1.65 | 52.96 | 0 | 18.53 | 20.55 | 30.86 |
| 06:37 | 2 | 18 | 84 | 2,147,483,647 | 0.31 | 0 | 2.17 | 2.25 | 53.53 | 0 | 16.39 | 18.69 | 28.14 |
| 06:36 | 2 | 18 | 84 | 2,147,483,647 | 0.31 | 0 | 2.15 | 1.54 | 56.66 | 0 | 18.53 | 20.09 | 29.77 |
| 06:35 | 2 | 18 | 84 | 2,147,483,647 | 0.3 | 0 | 2.17 | 1.9 | 54.24 | 0 | 19.95 | 21.48 | 33.03 |
| 06:34 | 2 | 17.9 | 84 | 2,147,483,647 | 0.31 | 0 | 2.18 | 2.82 | 54.22 | 0 | 17.81 | 19.62 | 29.77 |
| 06:33 | 2 | 17.9 | 84 | 2,147,483,647 | 0.31 | 0 | 2.18 | 1.44 | 52.41 | 0 | 17.1 | 18.69 | 28.69 |
| 06:32 | 2 | 18 | 84 | 2,147,483,647 | 0.31 | 0 | 2.16 | 2.45 | 51.04 | 0 | 17.1 | 19.15 | 29.75 |
| 06:29 | 2 | 17.9 | 84 | 2,147,483,647 | 0.31 | 0 | 2.15 | 1.49 | 62.37 | 0 | 18.53 | 21.47 | 33.54 |
| 06:27 | 2 | 17.9 | 84 | 2,147,483,647 | 0.33 | 0 | 2.15 | 1.84 | 50.94 | 0 | 18.53 | 20.08 | 29.75 |
| 06:22 | 2 | 17.9 | 84 | 2,147,483,647 | 0.31 | 0 | 2.15 | 1.73 | 55.32 | 0 | 17.81 | 19.14 | 29.18 |